Location: High Point State Park
(41.2941°N, 74.6906°W)
Time: 05:23:20
(UTC-05:00)

Hubble Space Telescope - Visible Passes

Search period start: 24 February 2017 00:00
Search period end: 06 March 2017 00:00
Orbit: 538 x 542 km, 28.5° (Epoch: 23 February)

Date Brightness Start Highest point End Pass type
(mag) Time Alt. Az. Time Alt. Az. Time Alt. Az.
25 Feb 3.2 19:21:51 10° S 19:22:09 10° SSE 19:22:09 10° SSE visible
26 Feb 3.1 19:10:46 10° S 19:12:05 11° S 19:12:52 11° SSE visible
27 Feb 3.1 19:00:15 10° SSW 19:01:58 12° S 19:03:33 10° SSE visible
28 Feb 3.1 18:49:54 10° SSW 18:51:52 13° S 18:53:49 10° SSE visible
01 Mar 3.1 18:39:41 10° SSW 18:41:46 14° S 18:43:50 10° SSE visible
02 Mar 3.1 18:29:32 10° SSW 18:31:39 14° S 18:33:46 10° SSE visible
03 Mar 3.2 18:19:27 10° SSW 18:21:33 14° S 18:23:37 10° SSE visible
